Wind_Speed
26 28 25 23 21 19 19 17 18 19 18 16 13 13 12 11 10 9 7 6 5 6 6 7 8 9 10 11 12 12 12 11 12 13 14 15 15 15 15 16 17 15 15
30 29 27 23 21 19 19 18 17 17 18 15 12 11 10 9 8 7 5 4 4 5 5 4 6 6 7 9 11 11 11 11 14 15 15 16 14 14 13 14 15 16 16
29 28 26 24 21 19 17 17 17 16 16 16 14 11 10 8 6 5 4 3 3 3 3 4 5 5 5 6 8 9 10 10 13 15 15 13 13 12 12 13 14 15 15
28 26 25 23 21 18 17 16 16 16 16 16 13 11 10 8 6 4 3 2 1 0 1 3 5 4 4 5 7 8 9 9 11 13 12 12 11 11 11 11 11 12 12
26 26 24 23 21 19 17 16 17 16 17 16 14 12 10 9 5 3 1 1 1 2 3 5 6 4 4 6 7 8 9 9 9 9 10 11 11 11 11 11 11 12 12
27 24 23 21 20 19 18 17 16 16 16 16 14 12 10 8 6 3 2 1 0 4 5 5 5 5 6 7 7 6 6 6 8 9 10 10 9 11 10 10 10 11 11
27 23 22 20 19 18 17 16 14 14 15 15 13 12 11 9 6 4 3 2 4 5 5 5 5 4 5 5 6 5 5 7 8 9 11 11 10 11 10 9 10 10 9
26 23 22 20 18 17 16 15 14 13 13 12 12 11 10 8 7 5 4 5 4 5 6 5 5 4 4 5 6 8 8 7 9 11 12 14 13 12 11 9 9 8 9
25 23 22 20 19 16 15 15 13 11 11 11 11 10 9 9 8 7 6 6 7 6 6 6 5 5 5 4 6 6 7 8 9 12 15 17 15 13 12 11 10 10 9
24 23 22 20 18 17 16 14 13 13 12 11 10 9 9 9 8 7 7 7 7 7 5 3 3 3 3 4 5 5 7 9 9 11 12 17 19 19 14 11 11 9 8
24 23 20 19 18 17 15 13 11 12 11 11 10 9 9 10 10 9 9 8 6 6 3 2 2 3 3 3 4 4 5 7 8 9 9 11 16 23 22 17 12 10 9
25 24 22 20 18 16 15 15 13 12 11 11 10 10 11 11 11 11 10 10 9 4 1 1 2 3 6 6 5 5 5 6 8 9 8 8 6 11 23 19 14 13 12
26 24 23 20 16 15 15 14 14 12 12 12 12 11 12 12 11 10 10 8 4 4 1 3 3 4 3 6 4 6 6 7 9 8 8 8 8 10 13 15 16 15 14
27 24 23 20 16 14 14 13 12 12 12 13 13 13 13 12 10 9 8 5 3 1 3 5 5 3 7 6 6 9 9 9 9 9 8 9 9 10 12 14 14 14 14
25 24 24 23 17 16 15 14 14 13 13 14 14 15 14 12 10 8 6 4 3 3 4 6 7 4 2 6 7 10 12 10 11 12 10 9 9 9 10 11 11 13 14
24 24 24 23 18 17 16 15 14 14 14 16 17 16 15 13 10 8 6 4 3 4 3 4 8 6 2 3 4 8 12 13 13 13 11 9 9 10 10 10 10 11 11
23 24 26 25 21 19 15 14 15 16 16 17 18 16 15 13 10 8 5 3 4 4 5 6 7 6 4 2 4 6 9 10 11 10 9 9 10 9 10 10 10 10 11
22 23 24 25 24 20 18 14 14 17 17 16 18 17 16 14 11 8 6 4 6 6 4 3 5 5 4 1 3 5 8 8 8 9 8 8 9 9 9 9 9 10 11
24 23 24 25 24 22 20 17 14 15 16 17 17 17 17 14 12 10 7 5 6 6 5 3 5 5 6 2 3 6 5 2 9 8 8 7 6 6 7 8 9 8 9
27 26 24 25 25 23 23 20 18 17 17 17 17 18 17 16 14 11 8 7 7 6 6 4 4 6 7 5 3 1 6 6 6 7 9 8 6 5 5 6 6 6 7
30 30 28 26 27 25 25 26 23 21 20 19 19 17 15 16 14 12 11 11 9 8 8 6 6 7 8 9 8 3 3 2 6 6 10 7 8 7 6 5 4 3 4
31 32 31 29 28 27 25 27 26 22 21 20 19 17 16 16 15 15 14 14 12 10 9 8 8 8 8 9 7 6 3 2 2 4 7 7 7 7 6 5 3 3 3
32 33 34 32 31 30 27 27 27 23 23 22 21 21 18 18 15 15 12 11 11 12 10 10 10 9 7 9 6 4 3 4 5 1 3 4 6 5 6 6 6 6 5
29 29 31 34 34 31 30 29 29 27 26 24 21 19 17 18 17 17 14 13 12 13 12 10 10 9 8 7 7 7 6 4 2 1 2 4 5 7 9 7 7 6 5
25 26 27 30 33 33 32 30 29 30 27 25 20 19 19 18 20 19 18 15 14 15 16 14 12 11 9 9 6 7 7 4 3 1 1 0 1 4 5 11 10 8 6
24 25 25 27 29 33 33 31 31 29 29 26 22 19 19 21 21 21 20 20 19 17 16 18 15 13 14 12 9 8 7 6 5 4 4 4 4 4 4 4 8 8 10
Wind_Direction
170 163 160 158 150 147 142 143 151 161 161 156 143 135 129 129 124 115 106 98 95 90 87 87 87 84 88 97 100 113 123 124 123 125 117 113 115 114 112 111 108 110 115
163 164 163 163 158 155 151 146 150 159 164 164 157 147 135 139 134 124 110 103 88 82 79 91 90 81 86 88 98 113 120 123 122 123 120 116 119 116 113 116 112 116 119
164 163 166 167 165 162 163 160 155 158 162 163 163 160 159 158 150 139 134 124 108 87 73 106 118 116 102 96 100 114 118 124 127 122 130 124 128 127 118 126 115 125 123
165 164 169 170 169 167 168 172 168 168 167 166 172 178 177 179 177 172 159 128 140 341 92 119 127 117 119 128 126 122 126 133 144 149 141 144 138 135 135 130 125 121 128
164 167 173 175 173 172 169 173 175 178 178 181 183 189 188 188 193 181 170 280 284 229 173 155 134 111 123 136 144 149 133 146 153 153 160 150 142 151 142 136 135 133 133
164 166 172 176 174 174 173 173 175 179 184 190 189 190 197 204 209 196 204 284 162 154 159 162 137 126 137 136 137 151 166 179 182 189 171 167 160 167 159 154 148 142 140
161 163 168 175 176 177 181 178 179 183 186 194 198 197 207 208 209 207 213 181 151 143 156 159 164 156 163 167 167 172 204 205 198 196 191 184 181 180 173 167 154 163 159
162 163 166 170 172 174 179 179 181 189 191 195 197 196 203 215 218 219 207 176 162 161 162 163 183 206 210 215 208 203 205 219 217 205 198 194 194 189 192 188 197 193 184
171 170 171 173 176 179 184 180 179 192 195 200 206 206 214 220 218 221 201 182 174 179 177 187 203 220 222 240 241 230 225 210 222 222 209 204 202 195 199 202 211 207 201
175 173 173 172 173 175 184 188 193 197 198 197 200 205 209 212 210 204 194 184 185 188 196 210 241 245 241 237 235 231 222 220 207 213 216 215 213 211 220 215 209 211 209
177 176 176 177 176 179 180 182 189 188 193 196 193 193 197 199 194 185 187 183 166 192 201 221 243 239 252 251 235 229 206 220 196 204 204 218 226 226 225 217 220 234 228
180 181 183 181 181 182 181 184 188 187 195 189 188 191 197 190 182 179 183 175 174 181 166 318 280 273 277 256 249 222 220 204 194 192 206 205 211 203 209 211 227 242 234
184 185 186 183 182 187 187 184 185 190 200 190 187 185 186 181 185 181 179 186 181 168 250 301 311 290 323 221 225 228 217 207 217 219 217 207 200 190 202 224 234 237 236
190 189 189 189 187 193 194 190 193 199 201 192 187 180 184 177 180 187 199 209 202 286 332 306 301 311 248 219 238 232 217 210 202 212 220 215 215 211 215 218 225 226 230
193 190 194 192 194 200 200 196 201 201 200 192 191 186 181 175 183 186 203 223 250 306 327 327 1 338 241 258 249 238 214 222 226 231 226 227 226 227 224 221 221 220 227
193 195 194 198 201 203 205 207 209 206 199 193 188 185 180 178 187 201 229 246 277 310 338 327 327 4 302 273 253 224 218 225 223 226 225 232 236 234 230 223 220 224 229
195 197 200 201 204 204 207 216 214 203 202 198 195 193 196 192 199 210 217 248 300 307 320 329 350 7 357 256 218 213 203 203 207 214 216 231 240 242 238 236 237 236 235
202 202 201 203 203 207 204 209 208 201 202 197 189 201 201 205 212 218 228 259 292 317 321 338 355 10 359 312 198 219 201 196 197 203 205 221 230 234 238 238 242 244 243
209 209 209 207 209 207 201 199 200 200 197 197 202 202 202 212 217 226 238 263 286 310 306 313 347 14 23 10 237 240 235 249 206 202 199 205 221 234 237 238 236 239 242
221 218 217 216 213 213 210 206 201 204 206 207 207 209 218 224 224 227 244 262 276 288 307 300 331 345 358 357 359 276 259 235 207 219 212 210 228 222 222 231 239 247 252
222 225 222 217 217 213 213 210 210 210 211 212 213 218 221 216 226 238 251 261 267 272 277 288 312 333 343 342 347 9 56 245 216 238 210 226 218 216 218 225 239 259 272
229 226 225 226 220 217 217 216 219 220 218 220 225 221 219 219 232 246 256 265 253 256 274 284 298 313 315 327 336 357 347 28 240 237 219 210 206 212 215 218 228 257 283
230 230 227 225 226 222 222 220 223 228 227 223 224 224 229 228 236 240 261 244 245 249 264 277 278 292 288 309 340 348 332 29 27 92 168 199 218 227 232 234 239 253 272
237 236 232 229 225 226 224 226 226 228 227 228 230 230 232 236 234 240 246 250 243 242 255 267 269 269 278 281 304 339 345 341 359 339 249 235 244 259 256 242 236 247 265
242 242 236 232 229 228 229 230 231 232 235 240 241 240 233 237 237 243 246 244 240 242 242 250 255 257 267 266 271 294 322 338 307 267 238 260 310 336 255 234 239 251 264
240 240 238 233 230 228 230 233 234 238 239 241 245 247 242 236 242 244 246 243 240 239 235 238 243 250 253 253 259 264 270 279 274 285 282 272 278 299 356 234 236 248 265
Height
1552 1556 1559 1563 1564 1567 1569 1571 1573 1575 1578 1579 1580 1581 1582 1583 1583 1584 1584 1584 1584 1585 1584 1585 1585 1585 1586 1586 1586 1587 1588 1589 1590 1590 1592 1594 1595 1596 1597 1597 1598 1599 1599
1551 1555 1559 1563 1565 1567 1570 1572 1574 1576 1578 1580 1581 1583 1584 1584 1585 1586 1586 1585 1585 1586 1587 1586 1587 1587 1587 1588 1589 1589 1590 1590 1591 1593 1594 1596 1597 1598 1599 1600 1600 1601 1602
1552 1555 1559 1563 1565 1567 1570 1573 1575 1578 1580 1581 1582 1584 1585 1586 1586 1587 1586 1587 1587 1587 1587 1587 1587 1587 1588 1589 1590 1591 1592 1593 1594 1595 1596 1598 1598 1599 1601 1602 1603 1604 1605
1553 1557 1560 1563 1566 1568 1570 1573 1576 1579 1581 1582 1584 1585 1586 1587 1587 1587 1588 1588 1587 1588 1588 1587 1587 1588 1589 1589 1590 1592 1593 1594 1596 1596 1598 1599 1601 1601 1602 1604 1605 1606 1607
1555 1558 1561 1564 1567 1569 1571 1574 1577 1579 1582 1584 1585 1586 1587 1587 1588 1588 1588 1588 1588 1588 1588 1589 1589 1589 1589 1589 1590 1591 1593 1594 1596 1598 1599 1601 1602 1603 1603 1605 1606 1607 1609
1555 1559 1562 1565 1567 1570 1572 1575 1578 1580 1582 1584 1585 1587 1588 1588 1588 1589 1589 1588 1588 1588 1589 1589 1590 1590 1591 1591 1591 1592 1593 1594 1596 1597 1599 1602 1603 1604 1605 1606 1607 1608 1609
1557 1560 1563 1566 1569 1571 1573 1576 1578 1580 1582 1583 1585 1587 1588 1589 1589 1590 1590 1590 1590 1590 1590 1591 1590 1591 1591 1592 1592 1591 1592 1594 1596 1597 1599 1601 1602 1604 1604 1606 1607 1609 1610
1558 1562 1564 1567 1570 1572 1574 1576 1579 1581 1582 1583 1585 1586 1587 1589 1590 1591 1591 1591 1591 1591 1591 1592 1591 1591 1592 1593 1593 1593 1593 1593 1595 1597 1599 1600 1602 1603 1605 1606 1608 1609 1611
1561 1563 1565 1568 1571 1573 1575 1577 1580 1581 1583 1584 1585 1587 1588 1590 1591 1591 1591 1591 1591 1591 1591 1592 1592 1592 1592 1593 1593 1593 1594 1594 1594 1595 1597 1599 1601 1603 1605 1606 1608 1609 1611
1562 1564 1566 1568 1571 1574 1576 1578 1580 1582 1583 1584 1585 1587 1588 1590 1591 1591 1591 1592 1592 1591 1592 1592 1592 1592 1592 1592 1593 1593 1593 1594 1594 1594 1596 1598 1600 1602 1605 1607 1608 1608 1609
1562 1564 1567 1569 1571 1574 1576 1578 1581 1582 1583 1585 1586 1587 1588 1590 1590 1591 1590 1591 1591 1591 1592 1592 1592 1592 1592 1592 1592 1592 1593 1593 1593 1594 1595 1596 1597 1599 1603 1605 1606 1608 1608
1560 1564 1566 1569 1571 1573 1576 1578 1580 1582 1583 1584 1586 1587 1589 1590 1590 1590 1590 1590 1591 1591 1592 1592 1592 1592 1591 1591 1591 1591 1592 1593 1593 1594 1595 1595 1596 1595 1600 1604 1606 1607 1607
1559 1563 1566 1569 1571 1573 1575 1577 1579 1581 1583 1584 1585 1587 1589 1590 1590 1591 1591 1591 1591 1592 1592 1591 1591 1591 1591 1591 1591 1592 1592 1593 1594 1595 1595 1596 1596 1597 1600 1602 1604 1606 1607
1558 1562 1565 1569 1571 1574 1576 1577 1579 1581 1582 1583 1585 1586 1589 1590 1590 1591 1591 1592 1593 1593 1593 1591 1591 1590 1590 1590 1590 1591 1592 1593 1594 1595 1596 1596 1597 1598 1599 1600 1601 1603 1604
1557 1561 1564 1567 1570 1573 1575 1577 1578 1580 1582 1583 1585 1586 1588 1590 1590 1591 1592 1592 1593 1593 1594 1592 1591 1589 1590 1590 1590 1590 1591 1592 1593 1594 1595 1596 1597 1598 1598 1598 1599 1601 1603
1557 1559 1563 1566 1569 1572 1574 1576 1578 1579 1581 1583 1585 1587 1589 1590 1590 1591 1592 1592 1593 1593 1593 1592 1592 1592 1591 1591 1590 1590 1590 1591 1591 1593 1594 1595 1596 1597 1597 1598 1598 1600 1600
1555 1559 1561 1565 1568 1570 1573 1575 1576 1578 1580 1582 1584 1586 1588 1590 1591 1591 1592 1592 1593 1593 1594 1593 1592 1591 1591 1590 1590 1590 1590 1590 1591 1592 1593 1594 1595 1595 1596 1597 1597 1598 1599
1555 1556 1560 1563 1565 1569 1571 1573 1575 1577 1579 1581 1583 1585 1588 1590 1591 1591 1592 1592 1593 1593 1593 1593 1593 1592 1591 1591 1590 1591 1590 1590 1591 1592 1592 1593 1594 1595 1594 1595 1596 1596 1597
1553 1555 1558 1561 1563 1567 1570 1573 1575 1576 1578 1580 1583 1585 1587 1589 1590 1591 1592 1592 1592 1593 1593 1593 1592 1592 1591 1591 1590 1590 1590 1590 1590 1591 1592 1593 1593 1594 1594 1593 1594 1595 1595
1551 1554 1557 1560 1563 1566 1569 1572 1574 1576 1578 1580 1582 1584 1586 1587 1589 1590 1591 1592 1592 1593 1593 1593 1592 1592 1591 1591 1590 1589 1589 1589 1589 1590 1591 1592 1592 1593 1593 1593 1593 1593 1594
1547 1550 1553 1557 1560 1564 1566 1568 1571 1574 1577 1579 1581 1583 1585 1586 1588 1589 1590 1591 1591 1592 1592 1592 1592 1592 1591 1590 1590 1589 1588 1589 1589 1589 1590 1590 1591 1592 1592 1593 1593 1593 1592
1541 1544 1549 1553 1557 1561 1564 1567 1569 1573 1575 1578 1580 1581 1583 1585 1587 1588 1589 1589 1590 1591 1592 1592 1592 1592 1592 1591 1590 1589 1589 1589 1588 1588 1589 1589 1590 1591 1591 1591 1592 1592 1592
1535 1539 1544 1549 1553 1558 1562 1565 1568 1571 1573 1576 1577 1579 1581 1583 1584 1586 1587 1587 1589 1590 1591 1591 1591 1591 1592 1591 1591 1590 1589 1589 1588 1588 1588 1589 1589 1590 1590 1590 1590 1590 1591
1531 1536 1540 1545 1550 1555 1559 1562 1565 1568 1570 1573 1575 1578 1579 1581 1583 1584 1586 1586 1586 1587 1588 1589 1589 1589 1590 1591 1591 1590 1589 1588 1589 1590 1588 1588 1589 1589 1589 1589 1589 1589 1589
1529 1533 1537 1541 1546 1551 1555 1559 1563 1566 1569 1572 1574 1575 1577 1579 1580 1581 1582 1583 1582 1583 1584 1586 1587 1587 1588 1589 1589 1589 1589 1588 1588 1589 1589 1589 1588 1587 1585 1586 1587 1587 1587
1526 1529 1533 1537 1542 1547 1552 1556 1560 1563 1567 1569 1571 1573 1574 1575 1576 1577 1578 1578 1579 1579 1579 1581 1583 1584 1584 1586 1587 1587 1588 1588 1588 1588 1589 1588 1588 1587 1586 1585 1585 1585 1585